Weather History for KPVF - March, 2014

Change the Weather History Date:

Monday, March 31, 2014

  Actual Average Record
Temperature  
Mean Temperature 42 °F -  
Max Temperature 50 °F 63 °F 73 °F (2011)
Min Temperature 35 °F 39 °F 35 °F (2014)
Degree Days  
Heating Degree Days 22    
Moisture  
Dew Point 37 °F    
Average Humidity 87    
Maximum Humidity 100    
Minimum Humidity 62    
Precipitation  
Precipitation 0.00 in - - ()
Sea Level Pressure  
Sea Level Pressure 29.95 in    
Wind  
Wind Speed 7 mph (SSE)    
Max Wind Speed 23 mph    
Max Gust Speed 31 mph    
Visibility 8 miles    
Events      
Averages and records for this station are not official NWS values.
T = Trace of Precipitation, MM = Missing Value Source: NWS Daily Summary

Daily Weather History Graph

Daily Weather History Graph

Search for Another Location

Airport or City:

Trip Planner

Search our weather history database for the weather conditions in past years. The results will help you decide how hot, cold, wet, or windy it might be!

Date:

Astronomy

Mar. 31, 2014 Rise Set
Actual Time 6:49 AM PDT 7:25 PM PDT
Civil Twilight 6:22 AM PDT 7:52 PM PDT
Nautical Twilight 5:50 AM PDT 8:24 PM PDT
Astronomical Twilight 5:18 AM PDT 8:56 PM PDT
Moon 7:16 AM PDT (3/31) 8:49 PM PDT (3/31)
Length of Visible Light 13h 30m
Length of Day
12h 36m
New Moon, 1% of the Moon is Illuminated
Mar 31
New Moon
Apr 7
First Quarter
Apr 15
Full
Apr 22
Last Quarter
Apr 28
New

Hourly Weather History & Observations

Time (PDT) Temp. Windchill Dew Point Humidity Pressure Visibility Wind Dir Wind Speed Gust Speed Precip Events Conditions
3:55 AM 39.2 °F 35.0 °F 37.4 °F 93% 30.02 in 10.0 mi SE 5.8 mph - N/A   Overcast
4:15 AM 39.2 °F 35.9 °F 39.2 °F 100% 30.01 in 10.0 mi SE 4.6 mph - N/A   Overcast
4:35 AM 39.2 °F 34.2 °F 39.2 °F 100% 30.01 in 10.0 mi SE 6.9 mph - N/A   Overcast
4:55 AM 39.2 °F 35.9 °F 37.4 °F 93% 30.00 in 10.0 mi SE 4.6 mph - N/A   Mostly Cloudy
5:15 AM 39.2 °F 37.0 °F 37.4 °F 93% 30.00 in 10.0 mi SE 3.5 mph - N/A   Overcast
5:35 AM 39.2 °F - 37.4 °F 93% 29.99 in 10.0 mi Calm Calm - N/A   Overcast
5:55 AM 39.2 °F 35.9 °F 37.4 °F 93% 29.98 in 10.0 mi ESE 4.6 mph - N/A   Overcast
6:15 AM 39.2 °F 34.2 °F 37.4 °F 93% 29.97 in 10.0 mi ESE 6.9 mph - N/A   Overcast
6:35 AM 39.2 °F 33.6 °F 37.4 °F 93% 29.96 in 10.0 mi ESE 8.1 mph - N/A   Overcast
6:55 AM 39.2 °F 34.2 °F 37.4 °F 93% 29.96 in 10.0 mi SE 6.9 mph - N/A   Overcast
7:15 AM 41.0 °F 35.8 °F 35.6 °F 81% 29.96 in 10.0 mi SSE 8.1 mph - N/A   Overcast
7:35 AM 41.0 °F 35.8 °F 37.4 °F 87% 29.96 in 10.0 mi SSE 8.1 mph - N/A   Overcast
7:55 AM 41.0 °F 35.2 °F 37.4 °F 87% 29.96 in 10.0 mi SSE 9.2 mph - N/A   Overcast
8:15 AM 41.0 °F 35.2 °F 37.4 °F 87% 29.95 in 10.0 mi SSE 9.2 mph - N/A   Mostly Cloudy
8:35 AM 41.0 °F 34.3 °F 37.4 °F 87% 29.95 in 9.0 mi SSE 11.5 mph - N/A   Mostly Cloudy
8:55 AM 42.8 °F 38.6 °F 37.4 °F 81% 29.95 in 9.0 mi South 6.9 mph - N/A   Mostly Cloudy
9:15 AM 42.8 °F 38.0 °F 37.4 °F 81% 29.95 in 10.0 mi SSE 8.1 mph - N/A   Overcast
9:35 AM 44.6 °F 40.2 °F 37.4 °F 76% 29.94 in 10.0 mi SSE 8.1 mph - N/A   Overcast
9:55 AM 46.4 °F 41.9 °F 39.2 °F 76% 29.94 in 10.0 mi SSE 9.2 mph - N/A   Mostly Cloudy
10:15 AM 46.4 °F 42.9 °F 39.2 °F 76% 29.94 in 10.0 mi South 6.9 mph - N/A   Mostly Cloudy
10:35 AM 46.4 °F 39.5 °F 37.4 °F 71% 29.93 in 10.0 mi South 17.3 mph 20.7 mph N/A   Mostly Cloudy
10:55 AM 48.2 °F - 39.2 °F 71% 29.92 in 10.0 mi South 11.5 mph - N/A   Partly Cloudy
11:15 AM 50.0 °F - 37.4 °F 62% 29.90 in 10.0 mi SSE 18.4 mph 29.9 mph N/A   Partly Cloudy
11:35 AM 50.0 °F - 37.4 °F 62% 29.89 in 10.0 mi South 23.0 mph 31.1 mph N/A   Mostly Cloudy
10:35 PM 35.6 °F 32.8 °F 35.6 °F 100% 29.88 in 0.8 mi SSE 3.5 mph - N/A   Overcast
10:55 PM 35.6 °F 29.9 °F 35.6 °F 100% 29.88 in 1.2 mi SSE 6.9 mph - N/A   Overcast
11:15 PM 35.6 °F 30.7 °F 35.6 °F 100% 29.89 in 1.0 mi SSE 5.8 mph - N/A   Overcast
11:35 PM 35.6 °F 32.8 °F 35.6 °F 100% 29.90 in 1.2 mi South 3.5 mph - N/A   Overcast
11:55 PM 35.6 °F 30.7 °F 35.6 °F 100% 29.90 in 3.0 mi South 5.8 mph - N/A   Overcast